Location: Pian di Sc�
(43.6333°N, 11.5500°E)
Time: 08:08:10
(UTC+00:00)

Helios 1B rocket - Pass Details

Date: 07 August 2020
Orbit: 575 x 583 km, 98.1° (Epoch: 18 September)

Event Time Altitude Azimuth Distance (km) Brightness Sun altitude
Rises 00:43:53 0° 1° (N) 2,798 7.0 -27.0°
Reaches altitude 10° 00:46:16 10° 350° (N) 1,893 5.7 -26.8°
Enters shadow 00:48:49 24° 314° (NW) 1,204 4.2 -26.6°
